Wetbulb
65.50 65.13 65.32 65.33 64.79 64.08 63.04 61.54 61.78 61.18 59.89 56.91 55.91 53.69 51.78 51.81 51.55 52.64 51.40 48.09 45.71 43.82
64.73 64.85 64.38 64.79 65.28 64.30 64.00 61.85 60.48 58.63 55.17 52.67 50.58 49.95 48.90 47.15 45.70 47.16 46.01 44.35 43.30 41.90
63.58 63.71 63.43 63.41 63.02 62.46 62.59 57.76 56.77 53.43 51.55 49.17 48.31 47.14 46.95 44.90 44.88 43.76 43.11 42.24 40.85 40.25
61.75 61.95 61.37 60.89 61.42 59.49 56.77 54.15 53.11 51.64 48.75 47.99 45.30 45.54 44.23 43.06 42.18 41.26 40.04 40.49 39.21 38.47
60.06 59.60 59.45 59.27 57.25 53.61 51.90 50.56 50.47 48.12 45.73 44.74 43.16 43.11 42.12 40.44 40.35 39.00 37.77 38.06 37.47 36.73
52.55 55.22 57.77 56.27 53.69 50.75 49.25 47.00 46.26 44.13 42.87 41.85 40.98 40.70 40.72 39.26 38.88 38.15 37.73 36.98 36.23 35.54
51.30 52.10 53.23 54.43 51.30 48.60 47.18 44.07 44.26 41.82 41.08 39.98 39.73 39.03 37.85 37.57 37.41 37.20 36.73 36.22 36.19 35.10
50.17 50.54 49.01 45.21 44.27 42.17 43.01 41.04 40.79 37.56 36.06 36.31 37.07 36.76 36.42 36.01 35.87 34.96 34.44 34.78 34.31 34.96
45.84 43.70 41.18 39.64 38.28 37.03 36.29 36.87 35.72 36.06 35.46 35.13 34.39 37.39 37.68 36.25 34.66 33.75 32.90 32.29 32.42 33.28
39.78 38.46 38.00 36.84 35.53 35.03 35.24 35.07 34.65 34.41 34.86 34.14 33.13 37.37 37.24 35.95 34.02 33.08 32.82 32.13 31.55 30.82
37.71 37.16 36.13 34.73 34.39 34.69 34.36 34.09 33.81 34.09 33.99 34.37 33.23 37.12 36.70 34.57 33.43 33.05 32.84 32.32 31.98 30.91
37.04 35.42 34.76 34.24 33.93 33.66 33.09 32.66 32.95 32.95 33.31 33.29 33.40 36.67 35.74 33.78 32.45 31.71 31.60 31.94 32.13 31.52
36.96 35.30 34.57 34.77 34.23 34.01 33.52 32.40 31.33 31.84 33.71 33.06 33.76 36.31 35.52 33.47 32.11 30.99 30.59 31.01 31.37 31.19
35.39 34.43 35.40 35.04 33.78 33.19 32.40 31.29 31.36 31.64 32.15 32.91 33.74 34.66 35.67 34.39 31.95 31.20 30.42 30.01 30.11 30.93
MSLP
1015.78 1016.00 1016.23 1016.66 1017.24 1017.90 1018.30 1018.64 1018.83 1019.68 1020.33 1020.81 1021.44 1022.24 1023.00 1023.42 1023.94 1024.18 1024.71 1025.26 1025.96 1026.30
1015.03 1015.23 1015.47 1015.90 1016.35 1016.95 1017.49 1018.04 1018.49 1019.22 1020.02 1020.76 1021.25 1021.89 1022.63 1023.47 1024.18 1024.55 1025.02 1025.59 1026.01 1026.72
1013.84 1014.62 1015.09 1015.52 1015.74 1016.19 1016.74 1017.63 1018.58 1019.33 1019.93 1020.58 1021.43 1022.04 1022.14 1023.16 1023.88 1024.53 1025.27 1025.95 1026.35 1026.87
1013.29 1014.12 1014.96 1015.29 1015.70 1016.15 1016.75 1017.61 1018.75 1019.37 1019.66 1020.42 1021.02 1021.75 1022.53 1022.91 1023.72 1024.12 1025.24 1025.93 1026.32 1027.12
1013.35 1013.84 1014.63 1015.17 1015.64 1016.15 1016.76 1017.50 1018.32 1019.06 1019.82 1020.09 1020.93 1021.56 1022.23 1022.63 1023.30 1024.01 1024.83 1025.59 1026.10 1026.92
1013.40 1013.63 1013.93 1014.98 1015.55 1016.12 1016.80 1017.47 1018.21 1018.88 1019.36 1020.11 1020.60 1021.42 1021.83 1022.64 1023.03 1023.80 1024.46 1025.30 1025.95 1026.56
1013.57 1013.74 1013.85 1014.50 1015.33 1015.96 1016.51 1017.20 1017.85 1018.44 1018.88 1019.55 1020.13 1021.24 1021.77 1022.18 1022.91 1023.76 1024.37 1025.04 1025.68 1026.26
1013.76 1013.99 1014.28 1014.76 1015.08 1015.79 1016.28 1016.99 1017.64 1018.52 1019.08 1019.33 1020.07 1020.65 1021.55 1021.89 1022.47 1023.35 1024.26 1025.19 1025.72 1026.08
1014.23 1014.65 1015.00 1015.17 1015.51 1015.99 1016.55 1017.01 1017.79 1018.26 1018.81 1019.08 1019.52 1020.13 1021.08 1021.16 1022.12 1023.26 1024.02 1024.80 1025.76 1026.15
1014.01 1014.71 1015.43 1016.05 1016.10 1016.23 1016.48 1017.13 1017.69 1018.20 1018.37 1018.99 1019.15 1020.18 1020.79 1021.05 1022.13 1022.95 1023.82 1024.54 1025.45 1026.26
1014.64 1014.99 1015.21 1015.91 1016.43 1016.59 1016.70 1016.76 1017.31 1017.79 1018.33 1018.59 1019.03 1019.93 1020.78 1021.39 1022.32 1023.03 1023.81 1024.39 1024.99 1025.49
1014.72 1015.11 1015.67 1015.94 1016.25 1016.67 1017.15 1017.37 1017.50 1017.85 1018.39 1018.78 1019.43 1019.99 1020.70 1021.38 1022.26 1022.89 1023.53 1024.27 1024.61 1025.06
1014.59 1014.84 1015.22 1015.72 1015.99 1016.47 1016.90 1017.61 1017.98 1018.43 1018.76 1018.95 1019.44 1020.03 1020.51 1021.04 1022.06 1022.80 1023.57 1024.28 1024.72 1025.07
1014.90 1015.29 1015.32 1015.73 1016.16 1016.61 1017.06 1017.52 1018.17 1018.54 1018.98 1019.41 1019.47 1020.28 1020.56 1021.00 1021.60 1022.33 1023.17 1023.64 1024.10 1024.61
Wind_Speed
18 12 12 13 10 10 9 10 12 10 9 9 9 8 7 5 4 5 5 7 5 5
15 16 13 15 13 10 11 9 10 11 10 9 9 10 10 6 6 6 6 7 7 6
16 15 14 14 13 10 9 9 10 10 10 11 9 9 11 8 9 8 6 5 7 6
12 13 12 11 10 7 7 10 10 11 11 12 12 11 9 9 10 11 9 7 8 7
9 9 9 9 7 7 9 8 10 11 10 12 11 11 11 12 11 12 11 10 9 9
9 9 9 8 8 8 8 9 8 10 11 12 12 11 10 10 12 11 11 10 9 10
7 8 8 8 7 8 9 11 11 11 11 12 12 11 10 12 11 10 9 9 8 10
5 5 5 7 8 8 9 9 10 10 7 9 9 9 12 12 12 12 10 7 7 8
5 4 4 5 6 6 6 8 9 11 11 13 8 15 18 15 12 11 11 11 8 8
6 6 5 5 6 7 9 9 10 10 12 11 9 19 19 17 10 11 10 10 10 8
5 5 7 6 6 7 8 11 11 11 11 11 9 21 18 15 10 8 9 10 10 10
6 5 6 7 8 6 6 6 7 7 8 9 8 19 19 14 9 9 9 9 10 10
6 7 8 7 7 5 5 3 3 3 4 5 9 17 20 14 7 8 7 6 5 9
4 4 5 5 3 6 6 6 6 7 5 5 8 13 21 19 8 8 8 8 8 7
Wind_Direction
215 218 216 215 208 212 207 207 193 188 184 157 153 145 137 142 137 150 144 134 127 123
218 216 215 217 214 209 207 204 181 177 162 153 148 152 143 139 146 143 136 128 129 123
212 213 217 220 219 215 199 155 172 172 160 150 151 156 150 148 155 140 132 134 132 128
209 207 218 220 218 189 151 162 180 180 162 162 158 161 158 150 150 139 141 150 146 147
206 192 207 212 187 163 167 170 176 165 162 160 161 164 162 160 156 149 153 157 151 157
203 208 187 184 180 171 163 164 164 167 164 172 163 165 160 159 153 156 157 160 161 156
206 210 199 197 171 168 167 167 174 176 171 166 167 162 159 156 151 154 155 157 161 161
206 200 171 161 165 159 170 171 167 156 145 143 167 159 167 158 154 153 147 150 147 158
183 185 173 149 145 146 147 152 156 166 165 169 165 167 176 155 152 152 153 154 156 158
166 168 166 159 157 164 168 161 173 174 172 177 158 170 169 153 152 153 157 157 157 155
170 178 163 165 189 185 180 178 180 183 187 175 169 169 161 144 145 146 157 163 166 163
185 175 176 185 184 182 179 182 185 175 172 168 156 166 159 145 146 154 158 165 169 169
187 177 185 190 181 168 166 170 123 135 146 150 151 170 169 156 154 156 156 151 155 169
183 184 175 159 145 157 155 143 150 156 146 148 160 180 180 174 164 164 165 175 178 189